Overview Statistics Trail Chart Weather Telemetry Raw packets
 

This is the latest recevied weather packets stored in our database for station/object W6MAF. If no packets are shown the sender has not sent any weather packets the latest 10 day(s).

<< 59 60 61 62 63 64 65 >>
Time Temp. Humidity Pressure Rain* Wind** Luminosity Snow
1788245868 16.67° C 29% - 0 mm 4.02 m/s, 194° - -
1788245567 16.67° C 26% - 0 mm 4.02 m/s, 195° - -
1788245269 16.67° C 25% - 0 mm 4.47 m/s, 198° - -
1788244971 16.67° C 26% - 0 mm 4.47 m/s, 183° - -
1788244673 16.67° C 31% - 0 mm 4.47 m/s, 214° - -
1788244376 17.22° C 30% - 0 mm 4.02 m/s, 200° - -
1788244078 17.22° C 27% - 0 mm 4.47 m/s, 194° - -
1788243777 17.78° C 17% - 0 mm 4.47 m/s, 191° - -
1788243480 17.78° C 13% - 0 mm 3.13 m/s, 194° - -
1788243182 18.33° C 13% - 0 mm 4.02 m/s, 177° - -
1788242884 18.33° C 13% - 0 mm 4.47 m/s, 162° - -
1788242586 18.33° C 13% - 0 mm 5.36 m/s, 181° - -
1788242288 18.33° C 13% - 0 mm 5.81 m/s, 186° - -
1788241987 18.33° C 13% - 0 mm 6.26 m/s, 169° - -
1788241690 18.33° C 13% - 0 mm 5.36 m/s, 169° - -
1788241392 18.33° C 13% - 0 mm 5.36 m/s, 191° - -
1788241094 18.33° C 14% - 0 mm 6.71 m/s, 184° - -
1788240797 18.33° C 15% - 0 mm 7.6 m/s, 193° - -
1788240499 17.78° C 16% - 0 mm 6.26 m/s, 177° - -
1788240198 17.78° C 17% - 0 mm 6.71 m/s, 172° - -
1788239602 17.22° C 20% - 0 mm 7.15 m/s, 184° - -
1788239305 17.22° C 22% - 0 mm 5.36 m/s, 172° - -
1788239039 17.22° C 25% - 0 mm 4.92 m/s, 181° - -
1788239007 17.22° C 25% - 0 mm 4.92 m/s, 181° - -
1788238709 17.22° C 27% - 0 mm 5.36 m/s, 176° - -

* Rain latest hour (hover to see other rain measurements)
** Current wind speed in m/s (hover to see current wind gust speed)